TimeAKST,TemperatureF,Dew PointF,Humidity,Sea Level PressureIn,VisibilityMPH,Wind Direction,Wind SpeedMPH,Gust SpeedMPH,PrecipitationIn,Events,Conditions,WindDirDegrees,DateUTC
12:25 AM,37.4,33.8,87,30.36,10.0,NW,5.8,-,N/A,,Mostly Cloudy,310,2014-02-02 09:25:00
12:53 AM,37.9,33.1,83,30.36,10.0,WNW,5.8,-,N/A,,Mostly Cloudy,300,2014-02-02 09:53:00
1:53 AM,37.9,33.1,83,30.36,10.0,NW,6.9,-,N/A,,Overcast,310,2014-02-02 10:53:00
2:53 AM,37.0,32.0,82,30.35,10.0,WNW,8.1,-,N/A,,Scattered Clouds,300,2014-02-02 11:53:00
3:53 AM,37.9,30.9,76,30.34,10.0,WNW,12.7,-,N/A,,Mostly Cloudy,290,2014-02-02 12:53:00
4:09 AM,37.4,32.0,81,30.33,10.0,WNW,9.2,-,N/A,,Overcast,300,2014-02-02 13:09:00
4:31 AM,37.4,30.2,75,30.33,10.0,WNW,8.1,18.4,N/A,,Overcast,300,2014-02-02 13:31:00
4:53 AM,37.9,30.9,76,30.33,10.0,NW,12.7,-,N/A,,Overcast,310,2014-02-02 13:53:00
5:43 AM,37.4,30.2,75,30.32,10.0,NW,8.1,-,N/A,,Overcast,310,2014-02-02 14:43:00
5:53 AM,37.9,32.0,79,30.32,10.0,NW,6.9,-,N/A,,Overcast,310,2014-02-02 14:53:00
6:53 AM,37.0,30.9,79,30.31,10.0,NW,9.2,-,N/A,,Overcast,310,2014-02-02 15:53:00
7:53 AM,36.0,32.0,86,30.31,10.0,NW,6.9,-,0.00,,Overcast,320,2014-02-02 16:53:00
8:53 AM,36.0,33.1,89,30.32,10.0,NW,9.2,-,0.00,,Overcast,320,2014-02-02 17:53:00
9:53 AM,37.0,34.0,89,30.32,8.0,NNW,5.8,-,0.00,Rain,Light Rain,330,2014-02-02 18:53:00
10:53 AM,37.9,35.1,89,30.32,10.0,NE,9.2,-,0.01,,Overcast,50,2014-02-02 19:53:00
11:53 AM,39.0,35.1,86,30.32,10.0,Calm,Calm,-,0.00,,Overcast,0,2014-02-02 20:53:00
12:53 PM,39.0,34.0,82,30.30,10.0,NNE,6.9,-,0.00,,Overcast,20,2014-02-02 21:53:00
1:53 PM,37.9,36.0,93,30.29,10.0,NNW,4.6,-,0.01,Rain,Light Rain,330,2014-02-02 22:53:00
2:53 PM,39.0,36.0,89,30.27,10.0,Variable,3.5,-,0.01,Rain,Light Rain,0,2014-02-02 23:53:00
3:53 PM,39.0,35.1,86,30.27,10.0,NE,8.1,-,0.00,,Overcast,40,2014-02-03 00:53:00
4:53 PM,37.9,35.1,89,30.27,10.0,ENE,12.7,-,0.00,Rain,Light Rain,60,2014-02-03 01:53:00
5:53 PM,37.9,34.0,86,30.27,10.0,NE,11.5,-,0.00,Rain,Light Rain,50,2014-02-03 02:53:00
6:20 PM,37.4,35.6,93,30.26,9.0,NE,11.5,-,0.01,Rain,Light Rain,50,2014-02-03 03:20:00
6:53 PM,37.9,35.1,89,30.26,10.0,ENE,11.5,-,0.02,Rain,Light Rain,60,2014-02-03 03:53:00
7:53 PM,37.9,35.1,89,30.25,10.0,NE,12.7,-,0.02,Rain,Light Rain,50,2014-02-03 04:53:00
8:53 PM,37.9,36.0,93,30.25,7.0,NE,11.5,-,0.01,Rain,Light Rain,50,2014-02-03 05:53:00
9:53 PM,37.9,36.0,93,30.25,10.0,East,10.4,-,0.06,Rain,Light Rain,100,2014-02-03 06:53:00
10:53 PM,37.0,35.1,93,30.26,10.0,East,5.8,-,0.05,Rain,Light Rain,100,2014-02-03 07:53:00
11:53 PM,37.9,36.0,93,30.26,10.0,East,6.9,-,0.02,Rain,Light Rain,100,2014-02-03 08:53:00